STARLINK-36067

Last updated on Fri Dec 19 2025 00:02:08 GMT+0000 (Coordinated Universal Time)

1 66965U 25288G 25352.58336806 -.01261870 00000+0 -55713-2 0 9992 2 66965 43.0010 131.3929 0001527 274.6339 301.7842 15.86082166 2773
UTC large
Height (km)
Speed (km/s)
/
Latitude / Longitude
Inclination (degrees)
Orbital Period (minutes)
Azimuth
Elevation
Range (km)
Doppler Factor

Next 0 passes for location: London (51.5072 / 0.1276)

Sorry there are no passes over London.